EW7149 Weather Reports


Display with metric or nautical units.
time (UTC)temp
F
wind
direction
speed
MPH
gust
MPH
rain 1hr
in
rain 24hr
in
rain mn
in
humidity
%
barometer
mb
20260903211549 88 165 0.0 1.0 0.00 0.04 0.04 11 1012.8
20260903211032 88 164 0.0 1.0 0.00 0.04 0.04 14 1012.9
20260903210524 88 234 0.0 3.0 0.00 0.04 0.04 13 1012.9
20260903210033 88 284 0.0 1.0 0.00 0.04 0.04 19 1012.9
20260903205520 88 14 0.0 0.0 0.00 0.04 0.04 21 1012.9
20260903205005 88 267 0.0 2.0 0.00 0.04 0.04 20 1012.9
20260903203933 87 293 0.0 0.0 0.00 0.04 0.04 20 1013.1
20260903203418 87 284 0.0 0.0 0.00 0.04 0.04 15 1013.2
20260903202404 87 235 0.0 3.0 0.00 0.04 0.04 20 1013.3
20260903201902 87 267 0.0 3.0 0.00 0.04 0.04 19 1013.4
20260903201411 86 182 0.0 3.0 0.00 0.04 0.04 20 1013.5
20260903200917 86 294 0.0 0.0 0.00 0.04 0.04 23 1013.6
20260903200424 86 290 0.0 3.0 0.00 0.04 0.04 10 1013.6
20260903195921 85 248 0.0 0.0 0.00 0.04 0.04 11 1013.7
20260903195424 85 282 0.0 2.0 0.00 0.04 0.04 17 1013.7
20260903194427 85 272 0.0 10.0 0.00 0.04 0.04 18 1013.8
20260903193413 85 335 0.0 5.0 0.00 0.04 0.04 9 1014.0
20260903192913 85 312 0.0 5.0 0.00 0.04 0.04 8 1014.2
20260903191849 84 215 0.0 2.0 0.00 0.04 0.04 1 1014.3
20260903190854 83 267 0.0 0.0 0.00 0.04 0.04 1 1014.4
20260903190404 82 236 0.0 0.0 0.00 0.04 0.04 1 1014.5
20260903185908 82 142 0.0 8.0 0.00 0.04 0.04 1 1014.6
20260903185353 82 113 0.0 5.0 0.00 0.04 0.04 1 1014.7
20260903184847 82 243 0.0 0.0 0.00 0.04 0.04 1 1014.6
20260903184342 82 256 1.0 11.0 0.00 0.04 0.04 1 1014.7
20260903183836 82 298 2.0 8.0 0.00 0.04 0.04 1 1014.7
20260903183328 83 261 1.0 8.0 0.00 0.04 0.04 1 1014.6
20260903182320 82 147 1.0 8.0 0.00 0.04 0.04 1 1014.8
20260903181322 81 288 1.0 9.0 0.00 0.04 0.04 1 1014.8
20260903180810 80 260 1.0 9.0 0.00 0.04 0.04 1 1014.8
20260903180314 80 247 1.0 9.0 0.00 0.04 0.04 1 1014.8
20260903175757 80 14 2.0 9.0 0.00 0.04 0.04 1 1015.1
20260903175242 80 252 1.0 8.0 0.00 0.04 0.04 1 1015.0
20260903174744 79 275 1.0 7.0 0.00 0.04 0.04 1 1015.0
20260903173735 78 259 1.0 7.0 0.00 0.04 0.04 1 1015.0
20260903173243 77 293 1.0 6.0 0.00 0.04 0.04 1 1015.3
20260903172753 77 290 1.0 6.0 0.00 0.04 0.04 1 1015.4
20260903171740 77 285 1.0 11.0 0.00 0.04 0.04 1 1015.5
20260903171221 77 285 1.0 11.0 0.00 0.05 0.04 1 1015.7
20260903170717 77 302 1.0 7.0 0.00 0.11 0.04 1 1015.8
20260903170215 77 76 1.0 7.0 0.00 0.21 0.04 1 1015.7
20260903165204 77 257 2.0 7.0 0.00 0.46 0.04 1 1016.0
20260903164219 77 269 1.0 6.0 0.00 0.47 0.04 1 1016.0
20260903163711 77 154 1.0 6.0 0.00 0.47 0.04 1 1015.9
20260903163208 77 153 0.0 4.0 0.00 0.47 0.04 1 1015.7
20260903162657 77 132 0.0 3.0 0.00 0.47 0.04 1 1015.9
20260903162138 76 167 0.0 5.0 0.00 0.47 0.04 1 1015.7
20260903161636 75 153 0.0 3.0 0.00 0.47 0.04 1 1015.5
20260903161130 75 156 0.0 1.0 0.00 0.47 0.04 1 1015.5
20260903160634 75 155 0.0 3.0 0.04 0.47 0.04 1 1015.5
20260903155605 75 232 0.0 0.0 0.06 0.47 0.04 1 1015.8
20260903155051 75 232 0.0 0.0 0.00 0.46 0.03 1 1015.9
20260903154542 75 232 0.0 0.0 0.00 0.46 0.03 1 1016.5
20260903154031 75 232 0.0 1.0 0.00 0.45 0.02 1 1016.8
20260903153537 75 232 0.0 3.0 0.00 0.45 0.02 1 1017.4
20260903153046 75 228 0.0 0.0 0.00 0.45 0.02 1 1017.8
20260903151535 75 304 2.0 11.0 0.00 0.45 0.02 1 1018.7
20260903150522 76 282 1.0 11.0 0.00 0.45 0.02 1 1018.5
20260903150011 76 263 0.0 4.0 0.00 0.44 0.01 1 1017.4
20260903145508 76 252 1.0 4.0 0.00 0.44 0.01 1 1017.0
20260903145003 76 165 1.0 1.0 0.00 0.44 0.01 1 1017.1
20260903144452 76 309 0.0 5.0 0.00 0.44 0.01 1 1016.8
20260903143944 76 213 0.0 4.0 0.00 0.44 0.01 1 1016.7
20260903143445 76 155 0.0 4.0 0.00 0.44 0.01 1 1016.4
20260903142946 75 219 1.0 7.0 0.00 0.44 0.01 1 1016.4
20260903142436 75 220 1.0 7.0 0.00 0.44 0.01 1 1016.4
20260903141927 75 141 2.0 10.0 0.00 0.44 0.01 1 1016.3
20260903141409 75 155 1.0 10.0 0.00 0.44 0.01 1 1016.2
20260903140907 75 315 1.0 10.0 0.00 0.44 0.01 1 1016.3
20260903140358 75 148 0.0 10.0 0.00 0.44 0.01 1 1016.0
20260903135353 74 178 0.0 4.0 0.00 0.44 0.01 1 1016.1
20260903134847 74 150 0.0 0.0 0.00 0.44 0.01 1 1016.0
20260903133845 74 148 0.0 0.0 0.00 0.44 0.01 1 1016.0
20260903133352 74 142 0.0 0.0 0.00 0.44 0.01 1 1015.9
20260903132845 74 161 0.0 0.0 0.00 0.44 0.01 1 1015.8
20260903132342 74 143 0.0 0.0 0.00 0.44 0.01 1 1015.4
20260903131832 73 141 0.0 0.0 0.00 0.44 0.01 1 1015.6
20260903131331 73 155 0.0 0.0 0.00 0.44 0.01 1 1015.7
20260903130833 73 140 0.0 0.0 0.00 0.44 0.01 1 1016.1
20260903130331 73 180 0.0 1.0 0.00 0.44 0.01 1 1017.0
20260903125820 73 164 0.0 0.0 0.00 0.44 0.01 1 1016.9
20260903125306 73 164 0.0 0.0 0.00 0.44 0.01 1 1016.6
20260903124802 73 164 0.0 0.0 0.00 0.44 0.01 1 1016.4
20260903124242 73 164 0.0 0.0 0.00 0.44 0.01 1 1017.0
20260903123731 73 158 0.0 1.0 0.00 0.44 0.01 1 1016.9
20260903123224 73 141 0.0 0.0 0.00 0.44 0.01 1 1017.4
20260903122732 73 140 0.0 0.0 0.00 0.44 0.01 1 1017.3
20260903122217 73 140 0.0 0.0 0.00 0.44 0.01 1 1017.2
20260903121204 73 155 0.0 0.0 0.00 0.44 0.01 1 1016.9
20260903115639 73 149 0.0 4.0 0.00 0.44 0.01 1 1016.8
20260903115133 73 148 0.0 0.0 0.00 0.44 0.01 1 1016.7
20260903114614 73 299 0.0 0.0 0.00 0.44 0.01 1 1016.8
20260903114115 73 299 0.0 0.0 0.00 0.44 0.01 1 1017.2
20260903113617 73 299 0.0 0.0 0.00 0.44 0.01 1 1017.5
20260903113103 73 299 0.0 0.0 0.00 0.44 0.01 1 1017.7
20260903112605 73 299 0.0 0.0 0.00 0.44 0.01 1 1017.9
20260903112108 73 299 0.0 0.0 0.00 0.44 0.01 1 1017.9
20260903111605 73 299 0.0 0.0 0.00 0.44 0.01 1 1018.0
20260903111111 73 299 0.0 0.0 0.00 0.44 0.01 1 1017.9
20260903110619 73 299 0.0 0.0 0.00 0.44 0.01 1 1017.9
20260903105545 73 300 0.0 0.0 0.00 0.44 0.01 1 1018.1
20260903105046 73 300 0.0 0.0 0.00 0.43 0.00 1 1018.1
20260903104554 73 300 0.0 0.0 0.00 0.43 0.00 1 1017.9
20260903104040 73 300 0.0 0.0 0.00 0.43 0.00 1 1017.9
20260903103535 73 300 0.0 0.0 0.00 0.43 0.00 1 1017.7
20260903103030 73 300 0.0 0.0 0.00 0.43 0.00 1 1017.6
20260903102515 73 300 0.0 0.0 0.00 0.43 0.00 1 1017.5
20260903102005 73 300 0.0 0.0 0.00 0.43 0.00 1 1017.1
20260903101513 73 300 0.0 0.0 0.00 0.43 0.00 1 1017.0
20260903100504 73 300 0.0 0.0 0.00 0.43 0.00 1 1017.0
20260903100010 73 300 0.0 0.0 0.00 0.43 0.00 1 1016.9
20260903095453 73 300 0.0 0.0 0.00 0.43 0.00 1 1016.8
20260903094950 73 300 0.0 0.0 0.00 0.43 0.00 1 1016.7
20260903094432 73 300 0.0 0.0 0.00 0.43 0.00 1 1016.5
20260903093918 73 300 0.0 0.0 0.00 0.43 0.00 1 1016.6
20260903093421 73 300 0.0 0.0 0.00 0.43 0.00 1 1016.7
20260903092908 72 300 0.0 0.0 0.00 0.43 0.00 1 1016.7
20260903092418 72 300 0.0 0.0 0.00 0.43 0.00 1 1016.7
20260903091928 72 300 0.0 0.0 0.00 0.43 0.00 1 1016.9
20260903091433 72 300 0.0 0.0 0.00 0.43 0.00 1 1017.0
20260903090937 72 300 0.0 0.0 0.00 0.43 0.00 1 1017.1
20260903090423 72 300 0.0 0.0 0.00 0.43 0.00 1 1017.1
20260903085912 72 152 0.0 0.0 0.00 0.43 0.00 1 1017.3
20260903085421 72 150 0.0 0.0 0.00 0.43 0.00 1 1016.2
20260903084928 72 162 0.0 0.0 0.00 0.43 0.00 1 1016.1
20260903084418 72 163 0.0 0.0 0.00 0.43 0.00 1 1016.0
20260903083917 72 163 0.0 0.0 0.00 0.43 0.00 1 1016.2
20260903083425 72 163 0.0 0.0 0.00 0.43 0.00 1 1016.3
20260903082929 72 163 0.0 0.0 0.00 0.43 0.00 1 1016.2
20260903081922 72 163 0.0 0.0 0.00 0.43 0.00 1 1016.0
20260903081426 72 163 0.0 0.0 0.00 0.43 0.00 1 1016.2
20260903080935 72 163 0.0 0.0 0.00 0.43 0.00 1 1016.2
20260903080426 72 163 0.0 0.0 0.00 0.43 0.00 1 1016.3
20260903075430 72 163 0.0 0.0 0.00 0.43 0.00 1 1016.3
20260903074438 72 163 0.0 0.0 0.00 0.43 0.00 1 1016.4
20260903073942 72 163 0.0 0.0 0.00 0.43 0.00 1 1016.3
20260903073435 72 163 0.0 0.0 0.00 0.43 0.00 1 1016.2
20260903072933 72 163 0.0 0.0 0.00 0.43 0.00 1 1016.2
20260903072430 72 163 0.0 0.0 0.00 0.43 0.00 1 1016.2
20260903071936 72 163 0.0 0.0 0.00 0.43 0.00 1 1016.2
20260903070948 72 163 0.0 0.0 0.00 0.43 0.00 1 1016.3
20260903070449 72 163 0.0 0.0 0.00 0.43 0.00 1 1016.4
20260903065936 72 163 0.0 0.0 0.00 0.43 0.00 1 1016.5
20260903065418 72 163 0.0 0.0 0.00 0.43 0.00 1 1016.5
20260903064917 72 163 0.0 0.0 0.00 0.43 0.00 1 1016.3
20260903063923 72 163 0.0 0.0 0.00 0.43 0.00 1 1016.0
20260903063424 72 163 0.0 0.0 0.00 0.43 0.00 1 1016.0
20260903062933 72 163 0.0 0.0 0.00 0.43 0.00 1 1016.0
20260903062430 72 163 0.0 0.0 0.00 0.43 0.00 1 1016.0
20260903061925 72 163 0.0 0.0 0.00 0.43 0.00 1 1015.9
20260903060926 72 163 0.0 0.0 0.00 0.43 0.00 1 1015.7
20260903060428 72 163 0.0 0.0 0.00 0.43 0.00 1 1015.8
20260903055919 72 163 0.0 0.0 0.00 0.43 0.00 1 1015.8
20260903055407 72 163 0.0 0.0 0.00 0.43 0.00 1 1015.9
20260903054855 72 163 0.0 0.0 0.00 0.43 0.00 1 1015.9
20260903054354 72 163 0.0 0.0 0.00 0.43 0.00 1 1015.8
20260903053349 72 159 0.0 0.0 0.00 0.43 0.00 1 1016.0
20260903052838 72 155 0.0 0.0 0.00 0.43 0.00 1 1016.0
20260903052328 72 155 0.0 0.0 0.00 0.43 0.00 1 1016.1
20260903051817 72 155 0.0 0.0 0.00 0.43 0.00 1 1016.3
20260903050749 72 155 0.0 0.0 0.00 0.43 0.00 1 1016.3
20260903050256 72 155 0.0 0.0 0.00 0.43 0.00 1 1016.4
20260903045801 72 155 0.0 0.0 0.00 0.43 0.00 1 1016.4
20260903045300 72 155 0.0 0.0 0.00 0.43 0.00 1 1016.4
20260903044751 72 155 0.0 0.0 0.00 0.43 0.00 1 1016.3
20260903044257 72 155 0.0 0.0 0.00 0.43 0.00 1 1016.2
20260903043801 72 155 0.0 0.0 0.00 0.43 0.00 1 1016.4
20260903043250 72 155 0.0 0.0 0.00 0.43 0.00 1 1016.5
20260903042736 73 155 0.0 0.0 0.00 0.43 0.00 1 1016.4
20260903042232 73 155 0.0 0.0 0.00 0.43 0.00 1 1016.5
20260903041725 73 155 0.0 0.0 0.00 0.43 0.00 1 1016.6
20260903041206 73 155 0.0 0.0 0.00 0.43 0.00 1 1016.7
20260903035706 73 153 0.0 2.0 0.00 0.43 0.00 1 1016.9
20260903035150 73 153 0.0 0.0 0.00 0.43 0.00 1 1017.1
20260903034138 73 153 0.0 0.0 0.00 0.43 0.00 1 1017.5
20260903033632 73 153 0.0 0.0 0.00 0.43 0.00 1 1017.2
20260903033124 73 153 0.0 0.0 0.00 0.43 0.00 1 1017.1
20260903032626 73 153 0.0 0.0 0.00 0.43 0.00 1 1017.0
20260903032115 73 153 0.0 0.0 0.00 0.43 0.00 1 1016.9
20260903031616 73 153 0.0 0.0 0.00 0.43 0.00 1 1016.9
20260903030626 73 153 0.0 0.0 0.00 0.43 0.00 1 1016.9
20260903030120 73 153 0.0 0.0 0.00 0.43 0.00 1 1016.7
20260903025611 73 153 0.0 0.0 0.00 0.43 0.00 1 1016.7
20260903025110 73 153 0.0 0.0 0.00 0.43 0.00 1 1016.7
20260903024103 73 153 0.0 0.0 0.00 0.43 0.00 1 1016.7
20260903023548 73 153 0.0 0.0 0.00 0.43 0.00 1 1016.6
20260903023043 73 153 0.0 0.0 0.00 0.43 0.00 1 1016.7
20260903022533 74 153 0.0 0.0 0.00 0.43 0.00 1 1016.9
20260903022027 74 153 0.0 0.0 0.00 0.43 0.00 1 1017.0
20260903021537 74 153 0.0 0.0 0.00 0.43 0.00 1 1017.0
20260903021030 74 153 0.0 0.0 0.00 0.43 0.00 1 1017.0
20260903020019 74 153 0.0 0.0 0.00 0.43 0.00 1 1017.0
20260903015515 74 153 0.0 0.0 0.00 0.43 0.00 1 1017.0
20260903015024 74 153 0.0 0.0 0.00 0.43 0.00 1 1017.0
20260903014516 74 153 0.0 0.0 0.00 0.43 0.00 1 1016.9
20260903013959 74 153 0.0 0.0 0.00 0.43 0.00 1 1017.0
20260903013456 74 153 0.0 0.0 0.00 0.43 0.00 1 1017.0
20260903012950 73 153 0.0 0.0 0.00 0.43 0.00 1 1017.0
20260903012442 73 153 0.0 0.0 0.00 0.43 0.00 1 1016.9
20260903011938 73 153 0.0 0.0 0.00 0.43 0.00 1 1016.9
20260903011427 73 153 0.0 0.0 0.00 0.43 0.00 1 1016.7
20260903010928 73 153 0.0 0.0 0.00 0.43 0.00 1 1016.7
20260903010416 73 153 0.0 0.0 0.00 0.43 0.00 1 1016.7
20260903005911 73 153 0.0 0.0 0.00 0.43 0.00 1 1016.5
20260903005418 74 153 0.0 0.0 0.00 0.43 0.00 1 1016.3
20260903004859 74 153 0.0 0.0 0.00 0.43 0.00 1 1016.3
20260903004349 73 153 0.0 0.0 0.00 0.43 0.00 1 1016.2
20260903003834 73 153 0.0 0.0 0.00 0.43 0.00 1 1016.3
20260903003326 73 153 0.0 0.0 0.00 0.43 0.00 1 1016.4
20260903002829 73 153 0.0 0.0 0.00 0.43 0.00 1 1016.4
20260903002326 73 153 0.0 0.0 0.00 0.43 0.00 1 1016.5
20260903001304 73 153 0.0 0.0 0.00 0.43 0.00 1 1016.7
20260903000759 73 153 0.0 0.0 0.00 0.43 0.00 1 1016.8
20260903000303 73 153 0.0 0.0 0.00 0.43 0.00 1 1016.7
20260902235256 74 153 0.0 0.0 0.00 0.43 0.00 1 1016.5
20260902234239 74 153 0.0 0.0 0.00 0.43 0.00 1 1016.7
20260902233222 74 153 0.0 0.0 0.00 0.43 0.00 1 1016.7
20260902232727 75 153 0.0 0.0 0.00 0.43 0.00 1 1016.7
20260902232227 75 153 0.0 0.0 0.00 0.43 0.00 1 1016.9
20260902231725 75 153 0.0 0.0 0.00 0.43 0.00 1 1016.7
20260902230730 75 153 0.0 0.0 0.00 0.43 0.00 1 1016.9
20260902230221 75 153 0.0 0.0 0.00 0.43 0.00 1 1016.7
20260902225711 75 153 0.0 0.0 0.00 0.43 0.00 1 1016.5
20260902225209 76 152 0.0 5.0 0.00 0.43 0.00 1 1016.6
20260902224650 76 152 0.0 0.0 0.00 0.43 0.00 1 1016.6
20260902224136 76 152 0.0 0.0 0.00 0.43 0.00 1 1016.5
20260902223635 76 152 0.0 0.0 0.00 0.43 0.00 1 1016.6
20260902223138 76 152 0.0 0.0 0.00 0.43 0.00 1 1016.6
20260902222624 76 151 0.0 1.0 0.00 0.43 0.00 1 1016.7
20260902222106 76 151 0.0 3.0 0.00 0.43 0.00 1 1016.6
20260902221613 76 142 0.0 3.0 0.00 0.43 0.00 1 1016.5
20260902221106 76 155 0.0 0.0 0.00 0.43 0.00 1 1016.6
20260902220558 76 153 0.0 0.0 0.00 0.43 0.00 1 1016.4
20260902220056 77 153 0.0 0.0 0.00 0.43 0.00 1 1016.5
20260902215556 77 153 0.0 0.0 0.00 0.43 0.00 1 1016.5
20260902215037 77 160 0.0 0.0 0.00 0.43 0.00 1 1016.8
20260902214023 78 170 0.0 0.0 0.00 0.43 0.00 1 1017.0
20260902213531 77 156 0.0 0.0 0.00 0.43 0.00 1 1017.1
20260902213019 77 170 0.0 0.0 0.00 0.43 0.00 1 1017.0
20260902212522 77 170 0.0 0.0 0.00 0.43 0.00 1 1017.1
20260902212006 77 170 0.0 0.0 0.00 0.43 0.00 1 1017.2